[[{"header":{"parameterUnit":"m.s-1","parameterCategory":1,"la1":30.2991,"la2":30.254,"lo1":-89.0895,"lo2":-89.0444,"dy":0.0017,"dx":0.0017,"nx":28,"ny":28,"refTime":"2025-06-18T21:00:00:Z","depth":0,"parameterNumber":2,"parameterNumberName":"U-component_of_WINDS"},"data":[0,0,0,0,0,0,0,0,0,0,0,0,0,0,0,0,0,0,0,0,0,0,0,0,0,0,0,0,0,0,0,0,0,0,0,0,0,0,0,0,0,0,0,0,0,0,0,0,0,0,0,0,0,0,0,0,0,0,2.9581,2.9582,0,2.9709,2.9711,2.9712,2.9702,2.97,2.9698,2.9696,2.9827,2.9832,2.9838,0,0,0,0,0,0,0,0,0,0,0,0,0,2.9325,2.933,2.9581,2.9583,2.9584,2.9709,2.9711,2.9712,2.9702,2.97,2.9698,2.9695,2.9826,2.9832,2.9838,0,0,0,0,0,0,0,0,0,0,0,0,0,2.9443,2.9332,2.9581,2.9594,2.9597,2.9709,2.9711,2.9713,2.9703,2.97,2.9697,2.9694,2.9824,2.9831,2.9839,2.9946,0,0,2.9863,2.9867,0,0,0,0,0,0,0,0,2.9436,2.9453,2.9591,2.9593,2.9596,2.9687,2.9669,2.9791,2.9704,2.9662,2.9696,2.9693,2.9783,2.9794,2.9824,2.9952,2.9958,2.9864,2.9869,2.9872,2.9874,0,0,0,0,0,0,0,2.9428,2.9447,2.9632,2.9593,2.9596,2.9593,2.9607,2.9692,2.9737,2.9666,2.9665,2.9681,2.9784,2.9817,2.9827,2.996,2.9864,2.9871,2.9876,2.9879,3.0177,3.018,0,0,0,0,0,0,2.9417,2.944,2.9628,2.9635,2.9508,2.96,2.9615,2.9661,2.9736,2.9745,2.9683,2.968,2.9805,2.9818,2.9832,2.9959,2.9872,2.988,2.9884,3.0174,3.0178,3.0181,0,0,0,0,0,0,2.9412,2.9434,2.9622,2.9538,2.9562,2.9607,2.9659,2.9665,2.9697,2.9749,2.9757,2.9708,2.9803,2.9821,2.9917,2.9963,2.9883,2.989,3.017,3.0175,3.0179,3.0215,0,0,0,0,0,0,2.9405,2.9432,2.9474,2.9539,2.9566,2.9706,2.9662,2.9669,2.9711,2.9708,2.9775,2.9783,2.9802,2.9905,2.9924,2.9973,2.9897,3.0166,3.0172,3.0178,3.021,3.022,3.0229,0,0,0,0,0,2.9395,2.948,2.9476,2.9499,2.9619,2.9709,2.9724,2.9744,2.9715,2.9756,2.9789,2.9781,2.9955,2.9915,2.9937,2.9988,3.0163,3.0171,3.0177,3.0205,3.0218,3.0229,0,0,0,0,0,0,2.942,2.9488,2.9485,2.9593,2.9645,2.9707,2.976,2.9757,2.9818,2.9813,2.9834,2.985,2.9945,2.9977,2.993,3.0093,3.0055,3.0067,3.0069,3.0082,3.0091,3.008,2.9903,0,0,0,0,0,2.9437,2.9505,2.9561,2.9651,2.9677,2.9714,2.9754,2.9764,2.9818,2.984,2.988,2.9933,2.9999,3.0043,3.0107,3.0215,3.0227,3.0261,3.027,3.0278,3.0287,3.0343,3.0357,3.0205,3.0204,3.0204,0,0,2.9475,2.9521,2.9562,2.9657,2.9698,2.9765,2.9732,2.9807,2.9856,2.9852,2.9943,2.9975,3.0035,3.0136,3.0183,3.0166,3.0333,3.0287,3.0293,3.0298,3.0352,3.0366,3.0379,3.0209,3.0208,3.0208,0,0,2.9577,2.962,2.9697,2.9739,2.9802,2.9826,2.9844,2.9906,2.9926,3.0019,3.0016,3.0075,3.019,3.0232,3.0268,3.0384,3.0377,3.0405,3.0455,3.0509,3.0521,3.0531,3.0569,3.0583,3.0414,3.0414,3.0414,0,2.9616,2.9718,2.9738,2.9811,2.9852,2.985,2.9927,2.9967,3.0048,3.0075,3.0054,3.0196,3.0237,3.0346,3.0373,3.0405,3.0424,3.0396,3.0517,3.0528,3.0539,3.0575,3.0589,3.0417,3.0416,3.0416,3.0416,0,2.976,2.9831,2.9886,2.9962,3.001,3.0085,3.0115,3.016,3.0166,3.0191,3.0284,3.0333,3.0405,3.0432,3.044,3.0542,3.0528,3.0513,3.0474,3.0555,3.0589,3.0604,3.042,3.0419,3.0419,3.0418,0,0,2.9881,2.9966,2.9985,3.0018,3.0087,3.0141,3.0216,3.0286,3.0322,3.0378,3.0439,3.0535,3.0519,3.0561,3.0573,3.0621,3.0704,3.0599,3.06,3.0613,3.0816,3.0825,3.0841,3.0702,3.0704,3.0707,3.081,0,2.9987,3.0118,3.0137,3.0253,3.0316,3.0315,3.0379,3.0427,3.0453,3.051,3.0538,3.0604,3.0581,3.0605,3.0653,3.0684,3.0745,3.0678,3.0756,3.0759,3.0738,3.086,3.087,3.0965,3.0824,3.0826,3.0828,0,3.0129,3.0186,3.0308,3.0364,3.0391,3.0449,3.0513,3.0569,3.0622,3.0637,3.0682,3.0687,3.0762,3.0723,3.0825,3.0778,3.0812,3.0832,3.0836,3.0842,3.0796,3.0866,3.0996,3.1009,3.085,3.0848,3.0846,0,3.02,3.0308,3.0394,3.0423,3.0492,3.0531,3.0562,3.0613,3.0653,3.0709,3.0734,3.0799,3.0834,3.0883,3.0905,3.0875,3.1005,3.0968,3.1017,3.1016,3.1043,3.104,3.1177,3.107,3.1069,3.1069,3.1069,0,3.0315,3.0388,3.0426,3.0478,3.056,3.058,3.066,3.0689,3.0734,3.0791,3.0795,3.0848,3.0875,3.0932,3.095,3.103,3.1047,3.1059,3.1062,3.1057,3.1055,3.1077,3.107,3.1073,3.1072,3.1071,3.1071,0,3.0407,3.0436,3.0528,3.0586,3.0602,3.0659,3.0707,3.0757,3.0782,3.0853,3.0871,3.091,3.0977,3.1004,3.1087,3.1098,3.1189,3.1189,3.1171,3.1171,3.1217,3.1211,3.1371,3.1392,3.1273,3.1274,3.1275,0,3.0477,3.0533,3.0596,3.0634,3.0665,3.0727,3.0767,3.079,3.0831,3.0895,3.0936,3.1003,3.1057,3.1164,3.1199,3.1261,3.126,3.1312,3.127,3.1261,3.1257,3.1252,3.1256,3.1319,3.132,3.1321,3.1322,0,3.0597,3.0608,3.0665,3.0728,3.0775,3.0826,3.0874,3.0905,3.0935,3.0981,3.1049,3.1091,3.1174,3.1239,3.1303,3.1333,3.1332,3.1335,3.1349,3.1343,3.1328,3.1333,3.1188,3.1331,3.133,3.1329,3.1329,3.1329,3.0678,3.0726,3.0777,3.084,3.0879,3.0924,3.0973,3.1003,3.106,3.1128,3.1139,3.121,3.126,3.1345,3.1378,3.1434,3.1421,3.1442,3.1447,3.1451,3.1452,3.1322,3.1446,3.1446,3.1446,3.1446,3.1445,0,3.0795,3.0827,3.0885,3.0952,3.1001,3.0996,3.105,3.1091,3.1154,3.12,3.1253,3.1329,3.1392,3.1432,3.1494,3.1531,3.1531,3.1546,3.1542,3.1548,3.1462,3.1442,3.1544,3.1544,3.1544,3.1544,3.1544,3.1544,3.0861,3.0941,3.0958,3.1056,3.1088,3.1158,3.1188,3.1229,3.1266,3.1351,3.1402,3.1428,3.1471,3.1536,3.1593,3.1602,3.1624,3.1639,3.1647,3.1566,3.1555,3.1545,3.1526,3.1644,3.1645,3.1729,3.1729,3.173]},{"header":{"parameterUnit":"m.s-1","parameterCategory":1,"la1":30.2991,"la2":30.254,"lo1":-89.0895,"lo2":-89.0444,"dy":0.0017,"dx":0.0017,"nx":28,"ny":28,"refTime":"2025-06-18T21:00:00:Z","depth":0,"parameterNumber":3,"parameterNumberName":"V-component_of_WINDS"},"data":[0,0,0,0,0,0,0,0,0,0,0,0,0,0,0,0,0,0,0,0,0,0,0,0,0,0,0,0,0,0,0,0,0,0,0,0,0,0,0,0,0,0,0,0,0,0,0,0,0,0,0,0,0,0,0,0,0,0,2.0029,2.0031,0,2.0189,2.0191,2.0193,2.0214,2.0212,2.0211,2.0209,2.0374,2.038,2.0386,0,0,0,0,0,0,0,0,0,0,0,0,0,1.9742,1.9747,2.0029,2.0031,2.0033,2.0189,2.0191,2.0193,2.0214,2.0212,2.021,2.0209,2.0372,2.0379,2.0386,0,0,0,0,0,0,0,0,0,0,0,0,0,1.9881,1.9749,2.0029,2.0062,2.0067,2.0188,2.0191,2.0194,2.0214,2.0212,2.021,2.0208,2.037,2.0379,2.0387,2.0487,0,0,2.0414,2.0418,0,0,0,0,0,0,0,0,1.9873,1.9891,2.0055,2.006,2.0065,2.0179,2.015,2.0292,2.0215,2.0158,2.0209,2.0207,2.0311,2.0325,2.036,2.0494,2.0501,2.0415,2.042,2.0424,2.0426,0,0,0,0,0,0,0,1.9863,1.9884,2.0092,2.0058,2.0064,2.0069,2.0086,2.0177,2.0246,2.0163,2.0165,2.0184,2.0314,2.0351,2.0364,2.0504,2.0414,2.0422,2.0428,2.0431,2.0727,2.0729,0,0,0,0,0,0,1.9847,1.9876,2.0087,2.0097,1.9961,2.0076,2.0095,2.0145,2.0245,2.0258,2.0185,2.0184,2.0338,2.0354,2.037,2.0492,2.0424,2.0432,2.0437,2.0724,2.0727,2.073,0,0,0,0,0,0,1.9841,1.9866,2.0081,1.9987,2.0015,2.0084,2.0139,2.0149,2.0187,2.0262,2.0274,2.0211,2.0336,2.0357,2.0457,2.0498,2.0436,2.0444,2.0721,2.0725,2.0729,2.0737,0,0,0,0,0,0,1.9833,1.9863,1.9902,1.9988,2.002,2.0165,2.0142,2.0154,2.0202,2.0201,2.0289,2.0302,2.0336,2.0444,2.0466,2.0509,2.045,2.0718,2.0723,2.0727,2.0734,2.0741,2.0747,0,0,0,0,0,1.9822,1.9899,1.9904,1.9929,2.007,2.0168,2.0186,2.0224,2.0205,2.0244,2.0292,2.0299,2.049,2.0454,2.0479,2.0525,2.0715,2.0721,2.0727,2.0731,2.074,2.0747,0,0,0,0,0,0,1.9817,1.9911,1.9917,2.0024,2.0088,2.0171,2.0222,2.0233,2.0303,2.03,2.0345,2.0364,2.0462,2.0503,2.0462,2.0626,2.0601,2.0612,2.0595,2.0604,2.0611,2.0599,2.0458,0,0,0,0,0,1.9828,1.9899,1.9978,2.0064,2.0096,2.0153,2.0197,2.0221,2.0289,2.0316,2.0371,2.0437,2.0512,2.056,2.0633,2.0739,2.0758,2.0783,2.079,2.0795,2.0805,2.0863,2.0874,2.0749,2.0749,2.0749,0,0,1.9852,1.9912,1.9955,2.0064,2.0117,2.019,2.0176,2.0254,2.0309,2.0328,2.0425,2.0468,2.0544,2.0647,2.0695,2.0685,2.0843,2.0803,2.0806,2.0813,2.087,2.0882,2.0892,2.0753,2.0753,2.0752,0,0,1.9932,1.9985,2.0062,2.0114,2.0193,2.0231,2.0249,2.0331,2.036,2.0458,2.0473,2.0539,2.0667,2.072,2.0764,2.0863,2.0872,2.0886,2.0921,2.0977,2.0987,2.0996,2.1031,2.1043,2.0894,2.0894,2.0894,0,1.9952,2.0063,2.0101,2.0178,2.0226,2.0246,2.0324,2.0373,2.0471,2.0504,2.049,2.065,2.0704,2.0819,2.0842,2.0878,2.09,2.0876,2.0983,2.0992,2.1001,2.1035,2.1047,2.0896,2.0895,2.0895,2.0895,0,2.0083,2.0159,2.0212,2.0306,2.0359,2.0437,2.0486,2.0536,2.0554,2.0593,2.0692,2.0756,2.0841,2.087,2.089,2.0988,2.0979,2.0974,2.095,2.1013,2.1046,2.1059,2.0897,2.0897,2.0896,2.0896,0,0,2.0166,2.0278,2.0297,2.0339,2.0427,2.0487,2.0564,2.0647,2.0689,2.0756,2.0822,2.0929,2.0924,2.0974,2.0999,2.1048,2.1121,2.1037,2.1039,2.105,2.1232,2.1236,2.125,2.1127,2.113,2.1132,2.1226,0,2.0257,2.0396,2.0431,2.055,2.062,2.0639,2.0707,2.0767,2.0805,2.0871,2.0912,2.0987,2.0976,2.1006,2.1055,2.1102,2.1158,2.1095,2.1189,2.1192,2.1169,2.1267,2.1271,2.1357,2.1239,2.1241,2.1242,0,2.0381,2.0449,2.0574,2.0651,2.0682,2.0742,2.0821,2.0883,2.0952,2.0976,2.103,2.105,2.1132,2.1103,2.1215,2.1171,2.1211,2.124,2.1244,2.1254,2.1221,2.1279,2.1385,2.1398,2.1263,2.1261,2.126,0,2.0428,2.0552,2.0642,2.0678,2.077,2.0811,2.0852,2.0918,2.0965,2.1034,2.1065,2.1142,2.1184,2.1243,2.1283,2.1258,2.1392,2.1366,2.1414,2.1413,2.1441,2.1439,2.1555,2.1467,2.1467,2.1467,2.1467,0,2.0526,2.0601,2.0664,2.072,2.0805,2.0845,2.0928,2.0969,2.1027,2.1091,2.1112,2.1172,2.1221,2.1287,2.1319,2.1406,2.1425,2.1447,2.1454,2.1445,2.1442,2.1472,2.1467,2.147,2.147,2.1469,2.1468,0,2.0593,2.0638,2.0738,2.0816,2.0838,2.0897,2.0964,2.1018,2.1056,2.1136,2.1157,2.1217,2.1295,2.1341,2.144,2.1462,2.1559,2.1564,2.1535,2.1539,2.1583,2.1578,2.1722,2.1743,2.1642,2.1642,2.1643,0,2.0652,2.071,2.0794,2.0838,2.0879,2.0949,2.0997,2.1038,2.1087,2.1169,2.1213,2.1293,2.1359,2.1483,2.1535,2.1611,2.1618,2.1663,2.163,2.1618,2.1618,2.1614,2.162,2.1669,2.167,2.1671,2.1671,0,2.0752,2.0771,2.0839,2.0914,2.097,2.1032,2.1093,2.1128,2.1179,2.1233,2.1313,2.1364,2.1464,2.1543,2.1622,2.1664,2.1676,2.1681,2.1696,2.1687,2.1668,2.1678,2.1551,2.1678,2.1677,2.1677,2.1676,2.1676,2.0817,2.0869,2.0936,2.101,2.106,2.1117,2.1171,2.1215,2.1283,2.1367,2.1387,2.1471,2.1537,2.1646,2.1689,2.1755,2.1747,2.1769,2.1774,2.1779,2.178,2.1657,2.177,2.177,2.1769,2.1769,2.1769,0,2.0917,2.0961,2.1029,2.1113,2.1171,2.1177,2.1244,2.1293,2.1366,2.1427,2.149,2.1582,2.1658,2.1715,2.1792,2.1834,2.1842,2.1853,2.1851,2.186,2.1783,2.1762,2.1846,2.1846,2.1846,2.1846,2.1846,2.1846,2.0976,2.1065,2.1091,2.1204,2.1247,2.1329,2.1367,2.1419,2.1467,2.1568,2.1631,2.1667,2.1727,2.1808,2.1878,2.1893,2.192,2.1931,2.1946,2.1874,2.1865,2.1857,2.1838,2.1936,2.1937,2.2018,2.2019,2.2019]}]]